Location: Haliburton Scout Reserve
(45.0900°N, 78.3200°W)
Time: 01:49:00
(UTC-04:00)

IDEFIX/ARIANE 42P - Visible Passes

Search period start: 28 July 2015 00:00
Search period end: 07 August 2015 00:00
Orbit: 784 x 804 km, 98.3° (Epoch: 27 July)

Date Brightness Start Highest point End Pass type
(mag) Time Alt. Az. Time Alt. Az. Time Alt. Az.
29 Jul 5.3 21:27:14 10° SW 21:30:27 16° W 21:33:27 10° NW visible
01 Aug 5.6 21:43:51 10° WSW 21:45:32 11° W 21:46:52 10° WNW visible
02 Aug 5.2 21:12:54 10° SW 21:16:48 20° W 21:20:34 10° NW visible
05 Aug 5.3 21:28:48 10° WSW 21:31:49 15° W 21:34:37 10° NW visible
06 Aug 4.8 20:58:48 10° SSW 21:03:11 26° W 21:07:28 10° NW visible
